Starlink 31018

operational
NORAD ID: 58635 Int'l Des: 2023-203 Owner: SPXS Country: US Constellation: starlink
LEOCIRCULAR

Über Starlink 31018

Beschreibung wird geladen...

Live-Position

3D-Globus wird geladen...

Nächste Überflüge

Höhenverlauf

Altitude vs Time

uPlot chart will show altitude changes over time

Zweizeiliger Elementsatz

1 58635U 23203T 25305.04642604 -.00000002 00000-0 94501-5 0 9995
2 58635 43.0000 73.9016 0001527 273.3995 86.6682 15.27559781105119
Epoch: 1. Nov. 2025 • Age: 20 hours

Aktueller Status

Höhe 484.6 km
Geschwindigkeit 7.62 km/s
Subsatellitenpunkt -10.13°S, 93.06°W
Startdatum 23. Dez. 2023
Alter 1.8 years
Typ internet

Technische Details

Klassifizierung Payload
Masse 730.00 kg
Trockenmasse 700.00 kg
Gesamtmasse 730.00 kg
Länge 0.30 m
Durchmesser 4.10 m
Spannweite 29.00 m
Form Box + pan
Hersteller SPXS
Bus-Typ Starlink V2M
Phasenstatus In Orbit
Besitzer/Staat SPXS/US

Große Konstellationen

Loading constellations...